Time,TemperatureF,DewpointF,PressureIn,WindDirection,WindDirectionDegrees,WindSpeedMPH,WindSpeedGustMPH,Humidity,HourlyPrecipIn,Conditions,Clouds,dailyrainin,SoftwareType,DateUTC
2013-05-26 00:02:00,70.0,54.0,30.07,WNW,287,0.0,6.0,57,0.00,,,0.00,,2013-05-26 05:02:00,
2013-05-26 00:12:00,70.0,54.0,30.07,WNW,287,0.0,6.0,57,0.00,,,0.00,,2013-05-26 05:12:00,
2013-05-26 00:22:00,70.0,55.0,30.12,NNE,14,2.0,17.0,60,0.00,,,0.00,,2013-05-26 05:22:00,
2013-05-26 00:32:00,70.0,55.0,30.12,NNE,14,2.0,17.0,60,0.00,,,0.00,,2013-05-26 05:32:00,
2013-05-26 00:42:00,70.0,55.0,30.12,NNE,14,2.0,17.0,60,0.00,,,0.00,,2013-05-26 05:42:00,
2013-05-26 00:52:00,68.0,56.0,30.13,North,360,15.0,20.0,66,0.00,,,0.00,,2013-05-26 05:52:00,
2013-05-26 01:01:00,68.0,56.0,30.13,North,360,15.0,20.0,66,0.00,,,0.00,,2013-05-26 06:01:00,
2013-05-26 01:12:00,68.0,56.0,30.13,North,360,15.0,20.0,66,0.00,,,0.00,,2013-05-26 06:12:00,
2013-05-26 01:22:00,65.0,56.0,30.12,NNW,340,0.0,14.0,72,0.00,,,0.00,,2013-05-26 06:22:00,
2013-05-26 01:32:00,65.0,56.0,30.12,NNW,340,0.0,14.0,72,0.00,,,0.00,,2013-05-26 06:32:00,
2013-05-26 01:42:00,65.0,56.0,30.12,NNW,340,0.0,14.0,72,0.00,,,0.00,,2013-05-26 06:42:00,
2013-05-26 01:52:00,65.0,55.0,30.10,East,95,4.0,14.0,69,0.00,,,0.00,,2013-05-26 06:52:00,
2013-05-26 02:01:00,65.0,55.0,30.10,East,95,4.0,14.0,69,0.00,,,0.00,,2013-05-26 07:01:00,
2013-05-26 02:11:00,65.0,55.0,30.10,East,95,4.0,14.0,69,0.00,,,0.00,,2013-05-26 07:11:00,
2013-05-26 02:21:00,63.0,55.0,30.08,SSE,152,6.0,14.0,76,0.00,,,0.00,,2013-05-26 07:21:00,
2013-05-26 02:31:00,63.0,55.0,30.08,SSE,152,6.0,14.0,76,0.00,,,0.00,,2013-05-26 07:31:00,
2013-05-26 02:42:00,63.0,55.0,30.08,SSE,152,6.0,14.0,76,0.00,,,0.00,,2013-05-26 07:42:00,
2013-05-26 02:52:00,62.0,56.0,30.08,ESE,120,0.0,0.0,81,0.00,,,0.00,,2013-05-26 07:52:00,
2013-05-26 03:01:00,62.0,56.0,30.08,ESE,120,0.0,0.0,81,0.00,,,0.00,,2013-05-26 08:01:00,
2013-05-26 03:12:00,62.0,56.0,30.08,ESE,120,0.0,0.0,81,0.00,,,0.00,,2013-05-26 08:12:00,
2013-05-26 03:21:00,61.0,56.0,30.06,ESE,123,0.0,0.0,83,0.00,,,0.00,,2013-05-26 08:21:00,
2013-05-26 03:32:00,61.0,56.0,30.06,ESE,123,0.0,0.0,83,0.00,,,0.00,,2013-05-26 08:32:00,
2013-05-26 03:42:00,61.0,56.0,30.06,ESE,123,0.0,0.0,83,0.00,,,0.00,,2013-05-26 08:42:00,
2013-05-26 03:53:00,60.0,55.0,30.05,WSW,248,0.0,0.0,84,0.00,,,0.00,,2013-05-26 08:53:00,
2013-05-26 04:01:00,60.0,55.0,30.05,WSW,248,0.0,0.0,84,0.00,,,0.00,,2013-05-26 09:01:00,
2013-05-26 04:11:00,59.0,54.0,30.04,WSW,256,0.0,0.0,84,0.00,,,0.00,,2013-05-26 09:11:00,
2013-05-26 04:21:00,59.0,54.0,30.04,WSW,256,0.0,0.0,84,0.00,,,0.00,,2013-05-26 09:21:00,
2013-05-26 04:33:00,59.0,54.0,30.04,WSW,256,0.0,0.0,84,0.00,,,0.00,,2013-05-26 09:33:00,
2013-05-26 04:43:00,59.0,54.0,30.04,WSW,256,0.0,0.0,84,0.00,,,0.00,,2013-05-26 09:43:00,
2013-05-26 04:53:00,59.0,53.0,30.04,WSW,256,0.0,0.0,80,0.00,,,0.00,,2013-05-26 09:53:00,
2013-05-26 05:02:00,59.0,53.0,30.04,WSW,256,0.0,0.0,80,0.00,,,0.00,,2013-05-26 10:02:00,
2013-05-26 05:12:00,59.0,53.0,30.04,WSW,256,0.0,0.0,80,0.00,,,0.00,,2013-05-26 10:12:00,
2013-05-26 05:23:00,60.0,52.0,30.03,WSW,256,0.0,0.0,75,0.00,,,0.00,,2013-05-26 10:23:00,
2013-05-26 05:32:00,60.0,52.0,30.03,WSW,256,0.0,0.0,75,0.00,,,0.00,,2013-05-26 10:32:00,
2013-05-26 05:42:00,60.0,52.0,30.03,WSW,256,0.0,0.0,75,0.00,,,0.00,,2013-05-26 10:42:00,
2013-05-26 05:52:00,61.0,53.0,30.03,WSW,258,0.0,0.0,75,0.00,,,0.00,,2013-05-26 10:52:00,
2013-05-26 06:03:00,61.0,53.0,30.03,WSW,258,0.0,0.0,75,0.00,,,0.00,,2013-05-26 11:03:00,
2013-05-26 06:11:00,61.0,53.0,30.03,WSW,258,0.0,0.0,75,0.00,,,0.00,,2013-05-26 11:11:00,
2013-05-26 06:22:00,62.0,55.0,30.03,WNW,285,0.0,6.0,77,0.00,,,0.00,,2013-05-26 11:22:00,
2013-05-26 06:32:00,62.0,55.0,30.03,WNW,285,0.0,6.0,77,0.00,,,0.00,,2013-05-26 11:32:00,
2013-05-26 06:42:00,62.0,55.0,30.03,WNW,285,0.0,6.0,77,0.00,,,0.00,,2013-05-26 11:42:00,
2013-05-26 06:52:00,64.0,55.0,30.05,WSW,246,0.0,0.0,72,0.00,,,0.00,,2013-05-26 11:52:00,
2013-05-26 07:01:00,64.0,55.0,30.05,WSW,246,0.0,0.0,72,0.00,,,0.00,,2013-05-26 12:01:00,
2013-05-26 07:12:00,64.0,55.0,30.05,WSW,246,0.0,0.0,72,0.00,,,0.00,,2013-05-26 12:12:00,
2013-05-26 07:21:00,64.0,54.0,30.06,SW,226,1.0,7.0,70,0.00,,,0.00,,2013-05-26 12:21:00,
2013-05-26 07:32:00,64.0,54.0,30.06,SW,226,1.0,7.0,70,0.00,,,0.00,,2013-05-26 12:32:00,
2013-05-26 07:42:00,64.0,54.0,30.06,SW,226,1.0,7.0,70,0.00,,,0.00,,2013-05-26 12:42:00,
2013-05-26 07:52:00,65.0,56.0,30.05,WNW,287,2.0,10.0,72,0.00,,,0.00,,2013-05-26 12:52:00,
2013-05-26 08:02:00,65.0,56.0,30.05,WNW,287,2.0,10.0,72,0.00,,,0.00,,2013-05-26 13:02:00,
2013-05-26 08:11:00,65.0,56.0,30.05,WNW,287,2.0,10.0,72,0.00,,,0.00,,2013-05-26 13:11:00,
2013-05-26 08:21:00,65.0,56.0,30.06,West,281,0.0,7.0,73,0.00,,,0.00,,2013-05-26 13:21:00,
2013-05-26 08:32:00,65.0,56.0,30.06,West,281,0.0,7.0,73,0.00,,,0.00,,2013-05-26 13:32:00,
2013-05-26 08:42:00,65.0,56.0,30.06,West,281,0.0,7.0,73,0.00,,,0.00,,2013-05-26 13:42:00,
2013-05-26 08:52:00,66.0,57.0,30.07,WNW,287,1.0,17.0,73,0.00,,,0.00,,2013-05-26 13:52:00,
2013-05-26 09:02:00,66.0,57.0,30.07,WNW,287,1.0,17.0,73,0.00,,,0.00,,2013-05-26 14:02:00,
2013-05-26 09:11:00,66.0,57.0,30.07,WNW,287,1.0,17.0,73,0.00,,,0.00,,2013-05-26 14:11:00,
2013-05-26 09:21:00,68.0,57.0,30.06,WSW,257,0.0,6.0,68,0.00,,,0.00,,2013-05-26 14:21:00,
2013-05-26 09:32:00,68.0,57.0,30.06,WSW,257,0.0,6.0,68,0.00,,,0.00,,2013-05-26 14:32:00,
2013-05-26 09:42:00,71.0,55.0,30.07,SW,234,6.0,13.0,57,0.00,,,0.00,,2013-05-26 14:42:00,
2013-05-26 09:52:00,71.0,55.0,30.07,SW,234,6.0,13.0,57,0.00,,,0.00,,2013-05-26 14:52:00,
2013-05-26 10:01:00,71.0,55.0,30.07,SW,234,6.0,13.0,57,0.00,,,0.00,,2013-05-26 15:01:00,
2013-05-26 10:12:00,71.0,55.0,30.07,SW,234,6.0,13.0,57,0.00,,,0.00,,2013-05-26 15:12:00,
2013-05-26 10:22:00,74.0,55.0,30.08,West,272,4.0,10.0,51,0.00,,,0.00,,2013-05-26 15:22:00,
2013-05-26 10:33:00,74.0,55.0,30.08,West,272,4.0,10.0,51,0.00,,,0.00,,2013-05-26 15:33:00,
2013-05-26 10:43:00,76.0,54.0,30.07,West,264,6.0,12.0,46,0.00,,,0.00,,2013-05-26 15:43:00,
2013-05-26 10:53:00,76.0,54.0,30.07,West,264,6.0,12.0,46,0.00,,,0.00,,2013-05-26 15:53:00,
2013-05-26 11:03:00,76.0,54.0,30.07,West,264,6.0,12.0,46,0.00,,,0.00,,2013-05-26 16:03:00,
2013-05-26 11:12:00,78.0,53.0,30.06,SW,229,1.0,10.0,42,0.00,,,0.00,,2013-05-26 16:12:00,
2013-05-26 11:23:00,78.0,53.0,30.06,SW,229,1.0,10.0,42,0.00,,,0.00,,2013-05-26 16:23:00,
2013-05-26 11:33:00,78.0,53.0,30.06,SW,229,1.0,10.0,42,0.00,,,0.00,,2013-05-26 16:33:00,
2013-05-26 11:42:00,80.0,52.0,30.06,West,268,0.0,12.0,38,0.00,,,0.00,,2013-05-26 16:42:00,
2013-05-26 11:53:00,80.0,52.0,30.06,West,268,0.0,12.0,38,0.00,,,0.00,,2013-05-26 16:53:00,
2013-05-26 12:02:00,80.0,52.0,30.06,West,268,0.0,12.0,38,0.00,,,0.00,,2013-05-26 17:02:00,
2013-05-26 12:11:00,80.0,52.0,30.06,West,268,0.0,12.0,38,0.00,,,0.00,,2013-05-26 17:11:00,
2013-05-26 12:22:00,82.0,50.0,30.05,West,270,1.0,14.0,33,0.00,,,0.00,,2013-05-26 17:22:00,
2013-05-26 12:32:00,82.0,50.0,30.05,West,270,1.0,14.0,33,0.00,,,0.00,,2013-05-26 17:32:00,
2013-05-26 12:42:00,84.0,50.0,30.06,SSW,213,0.0,18.0,31,0.00,,,0.00,,2013-05-26 17:42:00,
2013-05-26 12:52:00,84.0,50.0,30.06,SSW,213,0.0,18.0,31,0.00,,,0.00,,2013-05-26 17:52:00,
2013-05-26 13:01:00,84.0,50.0,30.06,SSW,213,0.0,18.0,31,0.00,,,0.00,,2013-05-26 18:01:00,
2013-05-26 13:12:00,84.0,50.0,30.06,SSW,213,0.0,18.0,31,0.00,,,0.00,,2013-05-26 18:12:00,
2013-05-26 13:21:00,86.0,51.0,30.05,SW,233,3.0,14.0,30,0.00,,,0.00,,2013-05-26 18:21:00,
2013-05-26 13:32:00,86.0,51.0,30.05,SW,233,3.0,14.0,30,0.00,,,0.00,,2013-05-26 18:32:00,
2013-05-26 13:42:00,86.0,51.0,30.05,SW,233,3.0,14.0,30,0.00,,,0.00,,2013-05-26 18:42:00,
2013-05-26 13:52:00,87.0,50.0,30.04,SW,224,1.0,8.0,28,0.00,,,0.00,,2013-05-26 18:52:00,
2013-05-26 14:01:00,87.0,50.0,30.04,SW,224,1.0,8.0,28,0.00,,,0.00,,2013-05-26 19:01:00,
2013-05-26 14:11:00,87.0,50.0,30.04,SW,224,1.0,8.0,28,0.00,,,0.00,,2013-05-26 19:11:00,
2013-05-26 14:22:00,89.0,52.0,30.03,SW,215,1.0,10.0,28,0.00,,,0.00,,2013-05-26 19:22:00,
2013-05-26 14:32:00,89.0,52.0,30.03,SW,215,1.0,10.0,28,0.00,,,0.00,,2013-05-26 19:32:00,
2013-05-26 14:42:00,89.0,52.0,30.03,SW,215,1.0,10.0,28,0.00,,,0.00,,2013-05-26 19:42:00,
2013-05-26 14:52:00,90.0,49.0,30.02,SSW,195,6.0,14.0,25,0.00,,,0.00,,2013-05-26 19:52:00,
2013-05-26 15:02:00,90.0,49.0,30.02,SSW,195,6.0,14.0,25,0.00,,,0.00,,2013-05-26 20:02:00,
2013-05-26 15:11:00,90.0,49.0,30.02,SSW,195,6.0,14.0,25,0.00,,,0.00,,2013-05-26 20:11:00,
2013-05-26 15:22:00,92.0,50.0,30.00,South,175,0.0,14.0,24,0.00,,,0.00,,2013-05-26 20:22:00,
2013-05-26 15:32:00,92.0,50.0,30.00,South,175,0.0,14.0,24,0.00,,,0.00,,2013-05-26 20:32:00,
2013-05-26 15:42:00,92.0,49.0,29.99,South,175,0.0,10.0,23,0.00,,,0.00,,2013-05-26 20:42:00,
2013-05-26 15:52:00,92.0,49.0,29.99,South,175,0.0,10.0,23,0.00,,,0.00,,2013-05-26 20:52:00,
2013-05-26 16:01:00,92.0,49.0,29.99,South,175,0.0,10.0,23,0.00,,,0.00,,2013-05-26 21:01:00,
2013-05-26 16:11:00,92.0,49.0,29.99,South,175,0.0,10.0,23,0.00,,,0.00,,2013-05-26 21:11:00,
2013-05-26 16:22:00,92.0,45.0,29.98,SSE,148,0.0,18.0,20,0.00,,,0.00,,2013-05-26 21:22:00,
2013-05-26 16:33:00,92.0,45.0,29.98,SSE,148,0.0,18.0,20,0.00,,,0.00,,2013-05-26 21:33:00,
2013-05-26 16:43:00,92.0,45.0,29.98,SSE,148,0.0,18.0,20,0.00,,,0.00,,2013-05-26 21:43:00,
2013-05-26 16:53:00,93.0,46.0,29.96,SSE,162,0.0,8.0,20,0.00,,,0.00,,2013-05-26 21:53:00,
2013-05-26 17:02:00,93.0,46.0,29.96,SSE,162,0.0,8.0,20,0.00,,,0.00,,2013-05-26 22:02:00,
2013-05-26 17:12:00,93.0,46.0,29.96,SSE,162,0.0,8.0,20,0.00,,,0.00,,2013-05-26 22:12:00,
2013-05-26 17:23:00,93.0,42.0,29.96,SSW,210,4.0,18.0,17,0.00,,,0.00,,2013-05-26 22:23:00,
2013-05-26 17:33:00,93.0,42.0,29.96,SSW,210,4.0,18.0,17,0.00,,,0.00,,2013-05-26 22:33:00,
2013-05-26 17:42:00,93.0,40.0,29.94,SSW,193,1.0,14.0,16,0.00,,,0.00,,2013-05-26 22:42:00,
2013-05-26 17:53:00,93.0,40.0,29.94,SSW,193,1.0,14.0,16,0.00,,,0.00,,2013-05-26 22:53:00,
2013-05-26 18:02:00,93.0,40.0,29.94,SSW,193,1.0,14.0,16,0.00,,,0.00,,2013-05-26 23:02:00,
2013-05-26 18:12:00,93.0,40.0,29.94,SSW,193,1.0,14.0,16,0.00,,,0.00,,2013-05-26 23:12:00,
2013-05-26 18:22:00,93.0,38.0,29.93,WSW,240,4.0,17.0,15,0.00,,,0.00,,2013-05-26 23:22:00,
2013-05-26 18:32:00,93.0,38.0,29.93,WSW,240,4.0,17.0,15,0.00,,,0.00,,2013-05-26 23:32:00,
2013-05-26 18:43:00,92.0,38.0,29.94,SW,236,3.0,12.0,15,0.00,,,0.00,,2013-05-26 23:43:00,
2013-05-26 18:52:00,92.0,38.0,29.94,SW,236,3.0,12.0,15,0.00,,,0.00,,2013-05-26 23:52:00,
2013-05-26 19:02:00,92.0,38.0,29.94,SW,236,3.0,12.0,15,0.00,,,0.00,,2013-05-27 00:02:00,
2013-05-26 19:11:00,92.0,38.0,29.94,SW,236,3.0,12.0,15,0.00,,,0.00,,2013-05-27 00:11:00,
2013-05-26 19:21:00,91.0,37.0,29.92,West,274,0.0,6.0,15,0.00,,,0.00,,2013-05-27 00:21:00,
2013-05-26 19:32:00,91.0,37.0,29.92,West,274,0.0,6.0,15,0.00,,,0.00,,2013-05-27 00:32:00,
2013-05-26 19:42:00,90.0,33.0,29.92,South,182,1.0,10.0,13,0.00,,,0.00,,2013-05-27 00:42:00,
2013-05-26 19:52:00,90.0,33.0,29.92,South,182,1.0,10.0,13,0.00,,,0.00,,2013-05-27 00:52:00,
2013-05-26 20:01:00,90.0,33.0,29.92,South,182,1.0,10.0,13,0.00,,,0.00,,2013-05-27 01:01:00,
2013-05-26 20:11:00,90.0,33.0,29.92,South,182,1.0,10.0,13,0.00,,,0.00,,2013-05-27 01:11:00,
2013-05-26 20:22:00,88.0,36.0,29.93,West,263,1.0,6.0,16,0.00,,,0.00,,2013-05-27 01:22:00,
2013-05-26 20:31:00,88.0,36.0,29.93,West,263,1.0,6.0,16,0.00,,,0.00,,2013-05-27 01:31:00,
2013-05-26 20:42:00,87.0,35.0,29.93,SSW,206,0.0,0.0,16,0.00,,,0.00,,2013-05-27 01:42:00,
2013-05-26 20:52:00,87.0,35.0,29.93,SSW,206,0.0,0.0,16,0.00,,,0.00,,2013-05-27 01:52:00,
2013-05-26 21:01:00,87.0,35.0,29.93,SSW,206,0.0,0.0,16,0.00,,,0.00,,2013-05-27 02:01:00,
2013-05-26 21:11:00,87.0,35.0,29.93,SSW,206,0.0,0.0,16,0.00,,,0.00,,2013-05-27 02:11:00,
2013-05-26 21:21:00,84.0,47.0,29.93,SE,144,5.0,17.0,28,0.00,,,0.00,,2013-05-27 02:21:00,
2013-05-26 21:32:00,84.0,47.0,29.93,SE,144,5.0,17.0,28,0.00,,,0.00,,2013-05-27 02:32:00,
2013-05-26 21:43:00,81.0,47.0,29.95,SE,140,1.0,16.0,31,0.00,,,0.00,,2013-05-27 02:43:00,
2013-05-26 21:52:00,81.0,47.0,29.95,SE,140,1.0,16.0,31,0.00,,,0.00,,2013-05-27 02:52:00,
2013-05-26 22:02:00,81.0,47.0,29.95,SE,140,1.0,16.0,31,0.00,,,0.00,,2013-05-27 03:02:00,
2013-05-26 22:11:00,81.0,47.0,29.95,SE,140,1.0,16.0,31,0.00,,,0.00,,2013-05-27 03:11:00,
2013-05-26 22:21:00,78.0,57.0,29.96,SSE,152,1.0,11.0,48,0.00,,,0.00,,2013-05-27 03:21:00,
2013-05-26 22:33:00,78.0,57.0,29.96,SSE,152,1.0,11.0,48,0.00,,,0.00,,2013-05-27 03:33:00,
2013-05-26 22:43:00,78.0,57.0,29.96,SSE,152,1.0,11.0,48,0.00,,,0.00,,2013-05-27 03:43:00,
2013-05-26 22:53:00,77.0,59.0,29.96,South,175,0.0,2.0,54,0.00,,,0.00,,2013-05-27 03:53:00,
2013-05-26 23:02:00,77.0,59.0,29.96,South,175,0.0,2.0,54,0.00,,,0.00,,2013-05-27 04:02:00,
2013-05-26 23:12:00,77.0,59.0,29.96,South,175,0.0,2.0,54,0.00,,,0.00,,2013-05-27 04:12:00,
2013-05-26 23:23:00,75.0,57.0,29.98,SSE,167,0.0,0.0,54,0.00,,,0.00,,2013-05-27 04:23:00,
2013-05-26 23:33:00,75.0,57.0,29.98,SSE,167,0.0,0.0,54,0.00,,,0.00,,2013-05-27 04:33:00,
2013-05-26 23:43:00,74.0,57.0,30.00,SSW,196,0.0,0.0,56,0.00,,,0.00,,2013-05-27 04:43:00,
2013-05-26 23:52:00,74.0,57.0,30.00,SSW,196,0.0,0.0,56,0.00,,,0.00,,2013-05-27 04:52:00,